THOR ABLESTAR DEB, 545

Orbit data source: Space-Track

THOR ABLESTAR DEB, 545 is space debris in LEO originally from a launch on Thu, 29 Jun 1961 UTC launched from the Air Force Eastern Test Range (AFETR). Debris objects in space refer to the collection of defunct objects orbiting the Earth. Examples of debris include non-operational satellites, rocket bodies, and fragments generated from explosions, collisions, or faulty payload assembly.

Loading next visibility...
Identifier
545, 1961-015GE
Orbit
LEO
Country
Flag of USUS
Related business
Manufacturer
Unknown
Mission
Spacecraft
Bus & Motor
Unknown
Mass
Unknown
Launch date (UTC)
1961-06-29 (64 years ago)
Launch vehicle
Unknown
Launch site
Air Force Eastern Test Range (AFETR)
Object type
Payload
Rocket body
Debris
Shape & HBR
Unknown shape, 0.1 m
Radar Cross Section
Small (<0.1 m²)

Expand to show TLE details & history
Last TLE update: 15 hours ago

TLE from 15 hours ago
0 THOR ABLESTAR DEB
1   545U 61015GE  25310.44603601  .00000587  00000-0  67071-3 0  9996
2   545  67.2316  71.4704 0162453 217.2295 141.7427 13.70878459199752
Epoch: 2025-11-06T10:42Z
TLE epoch observation values (Epoch: 2025-11-06T10:42:17.511Z)
Latitude
-0.00002°
Longitude
-135.00681°
Altitude
1,093.323 km
Speed
7.259 km/s
True Right ascension
04h 45m 52s
True Declination
0° 00' 00"
Sunlit
Object was in full shadow at epoch
Visualization orbit readout
Latitude
Unknown
Longitude
Unknown
Altitude
Unknown
Speed
Unknown
Apparent Right ascension
Unknown
Apparent Declination
Unknown
Sunlit
N/A
Visualization observer readout
Local Sidereal Time
22:08:51
Azimuth
Unknown
Elevation
Unknown
Doppler factor
Unknown
Orbital elements
Apogee altitude
1,114.554 km
Perigee altitude
875.003 km
Semi-major axis
7,372.916 km
Eccentricity
0.01625
Inclination
67.2316°
RAAN
71.4704°
Arg. of periapsis
217.2295°
True anomaly
142.8772°
Mean anomaly
141.7427°
Eccentric anomaly
142.31175°
Mean motion
3.42834 °/min
Orbital period
105.01 mins
BSTAR
0.00067071
Loading maneuver chart data...
Computing Atmospheric mass density...

Documentation

Showing up to 5 results
|